Regional Weather Roundup
Issued by NWS

Home | Current Version | Previous Version | Graphics & Text | Print | Product List | Glossary On
Versions: 1 2 3 4 5 6 7 8 9 10 11 12 13 14 15 16 17 18 19 20 21 22 23 24 25 26 27 28 29 30 31 32 33 34 35 36 37 38 39 40 41 42 43 44 45 46 47 48 49 50
000
ASUS43 KLSX 291107
RWRMO

WEATHER SUMMARY FOR MISSOURI
NATIONAL WEATHER SERVICE SPRINGFIELD MO
600 AM CDT FRI MAY 29 2015

NOTE: "FAIR" INDICATES FEW OR NO CLOUDS BELOW 12,000 FEET WITH NO
       SIGNIFICANT WEATHER AND/OR OBSTRUCTIONS TO VISIBILITY.
       CURRENT SKY AND/OR WEATHER CONDITIONS ARE NOT AVAILABLE FOR
       CHILLICOTHE AND FARMINGTON.

MOZ001>031-035>038-043-044-053-054-291200-
...NORTHERN AND WESTERN MISSOURI...

CITY           SKY/WX    TMP DP  RH WIND       PRES   REMARKS
KANSAS CTY INT LGT RAIN  63  63 100 S10       29.95R FOG
KANSAS C DTWN  LGT RAIN  66  62  87 S6        29.95R
LEE`S SUMMIT   CLOUDY    64  63  96 S3        29.97R
ST JOSEPH      CLOUDY    64  63  96 S8        29.91F
CHILLICOTHE      N/A     64  62  93 CALM      29.96S
KIRKSVILLE     CLOUDY    65  65 100 S5        29.96R FOG

$$
MOZ066>068-077>081-088>096-101>105-291200-
...SOUTHWEST MISSOURI...

CITY           SKY/WX    TMP DP  RH WIND       PRES   REMARKS
SPRINGFIELD    PTCLDY    66  61  84 S9        30.00R
JOPLIN         CLOUDY    68  64  87 S5        30.00R

$$
MOZ032>034-039>042-045>050-055>058-069>072-291200-
...CENTRAL MISSOURI...

CITY           SKY/WX    TMP DP  RH WIND       PRES   REMARKS
COLUMBIA       MOCLDY    65  64  97 S7        29.99R
JEFFERSON CITY MOCLDY    66  63  90 CALM      29.99R
ROLLA          MOCLDY    65  63  93 S10       30.00R
SEDALIA        MOCLDY    65  63  93 S5        29.98R
WHITEMAN AFB   MOCLDY    66  65  99 S7        29.96R
WARRENSBURG    FOG       64  63  94 S6        29.96R VSB 1
OSAGE BEACH    PTCLDY    64  61  88 S7        29.99R

$$
MOZ051-052-059>065-291200-
...EAST CENTRAL MISSOURI...

CITY           SKY/WX    TMP DP  RH WIND       PRES   REMARKS
ST LOUIS INTL  CLOUDY    72  65  78 S8        30.01R
SPIRIT OF STL  CLOUDY   N/A N/A N/A CALM      29.99R
ST CHARLES     CLOUDY    69  66  90 SE5       29.99R

$$
MOZ072>076-082>087-097>100-106>115-291200-
...SOUTH CENTRAL AND SOUTHEAST MISSOURI...

CITY           SKY/WX    TMP DP  RH WIND       PRES   REMARKS
CAPE GIRARDEAU PTCLDY    66  65  96 SE5       30.03R
FARMINGTON     MOCLDY    66  64  94 S5        30.07R
POPLAR BLUFF   MOCLDY    68  65  90 CALM      30.03R
WEST PLAINS    CLEAR     65  62  90 SW3       30.04R

$$


USA.gov is the U.S. government's official web portal to all federal, state and local government web resources and services.